Regional Weather Roundup
Issued by NWS

Home | Current Version | Previous Version | Graphics & Text | Print | Product List | Glossary On
Versions: 1 2 3 4 5 6 7 8 9 10 11 12 13 14 15 16 17 18 19 20 21 22 23 24 25 26 27 28 29 30 31 32 33 34 35 36 37 38 39 40 41 42 43 44 45 46 47 48 49 50
000
ASUS45 KPSR 230010
RWRAZ

ARIZONA HOURLY REGIONAL WEATHER ROUNDUP
NATIONAL WEATHER SERVICE PHOENIX AZ
500 PM MST WED FEB 22 2017

NOTE: FAIR INDICATES FEW OR NO CLOUDS BELOW 12,000 FEET WITH NO
SIGNIFICANT WEATHER AND/OR OBSTRUCTIONS TO VISIBILITY.

AZZ001>003-036-230100-
NORTHWEST ARIZONA

CITY           SKY/WX    TMP DP  RH WIND       PRES   REMARKS
BULLHEAD CITY  SUNNY     72  37  28 SW13G18   29.80S
KINGMAN        SUNNY     60  19  20 S23       29.85F
6HR MIN TEMP:  60; 6HR MAX TEMP:  68;

$$

AZZ004>008-015-016-018-230100-
NORTH CENTRAL ARIZONA

CITY           SKY/WX    TMP DP  RH WIND       PRES   REMARKS
GRAND CANYON   CLOUDY    49  23  36 SW22G35   29.86F
6HR MIN TEMP:  47; 6HR MAX TEMP:  51;

WILLIAMS       PTSUNNY   46  27  46 S16G26    29.91F
PRESCOTT       CLOUDY    53  36  52 SW22G32   29.89F
6HR MIN TEMP:  53; 6HR MAX TEMP:  60;

FLAGSTAFF      CLOUDY    44  32  62 SW22G30   29.92F
6HR MIN TEMP:  44; 6HR MAX TEMP:  49;

PAYSON         CLOUDY    55  37  50 S8G17     29.97F
PAGE           MOSUNNY   64  10  12 SW10G30   29.69F
6HR MIN TEMP:  55; 6HR MAX TEMP:  65;

$$

AZZ009>014-017-230100-
NORTHEAST ARIZONA

CITY           SKY/WX    TMP DP  RH WIND       PRES   REMARKS
WINSLOW        CLOUDY    61  16  17 SW25G37   29.88F
6HR MIN TEMP:  60; 6HR MAX TEMP:  70;

SAINT JOHNS    PTSUNNY   61  28  28 W26G37    29.93F
6HR MIN TEMP:  57; 6HR MAX TEMP:  66;

WINDOW ROCK    CLOUDY    53  17  24 SW15G28   29.93F
6HR MIN TEMP:  53; 6HR MAX TEMP:  58;

SHOW LOW       MOSUNNY   52  25  35 SW20G29   30.00S
$$

AZZ023-230100-
GREATER PHOENIX AREA

CITY           SKY/WX    TMP DP  RH WIND       PRES   REMARKS
PHOENIX        CLOUDY    76  44  32 W7        29.82F
6HR MIN TEMP:  68; 6HR MAX TEMP:  77;

BUCKEYE        CLOUDY    72  46  40 SW9       29.83F
GLENDALE       PTSUNNY   75  46  35 SW7       29.85F
LUKE AFB       CLOUDY    74  47  38 S8        29.81F
6HR MIN TEMP:  66; 6HR MAX TEMP:  76;

DEER VALLEY    CLOUDY    72  48  42 S9        29.83F
6HR MIN TEMP:  66; 6HR MAX TEMP:  73;

SCOTTSDALE     CLOUDY    73  41  31 SW8       29.86F
6HR MIN TEMP:  67; 6HR MAX TEMP:  75;

MESA-FALCON    PTSUNNY  N/A N/A N/A MISG      29.82
MESA-GATEWAY   CLOUDY    75  43  31 SW6       29.85F
CHANDLER       SUNNY     77  45  31 S9        29.83F
$$

AZZ027-028-230100-
SOUTHWEST MARICOPA COUNTY AND PINAL COUNTY

CITY           SKY/WX    TMP DP  RH WIND       PRES   REMARKS
CASA GRANDE    NOT AVBL
GILA BEND      PTSUNNY   78  35  21 W10       29.81F
6HR MIN TEMP:  69; 6HR MAX TEMP:  81;

$$

AZZ503-504-507>509-230100-
SOUTHEAST ARIZONA

CITY           SKY/WX    TMP DP  RH WIND       PRES   REMARKS
TUCSON         SUNNY     79  41  25 NW13      29.89F
6HR MIN TEMP:  69; 6HR MAX TEMP:  80;

DAVIS-MONTHAN  SUNNY     77  42  28 N13       29.89F
6HR MIN TEMP:  71; 6HR MAX TEMP:  78;

RYAN FIELD     SUNNY     79  37  22 W17G23    29.88F
NOGALES        SUNNY     76  34  21 W14G20    29.95F
SIERRA VISTA   SUNNY     74  25  16 W23       29.97F
6HR MIN TEMP:  67; 6HR MAX TEMP:  78;

DOUGLAS        SUNNY     79  27  14 W14       29.92S
6HR MIN TEMP:  67; 6HR MAX TEMP:  82;

SAFFORD        SUNNY     76  38  25 NW13      29.86F
6HR MIN TEMP:  66; 6HR MAX TEMP:  78;

$$

AZZ020-021-025-026-031-230100-
SOUTHWEST ARIZONA

CITY           SKY/WX    TMP DP  RH WIND       PRES   REMARKS
YUMA           CLOUDY    76  41  28 W6        29.82F
6HR MIN TEMP:  73; 6HR MAX TEMP:  78;

$$

CAZ031-033-041-043-047-048-061-230100-
SOUTHERN CALIFORNIA

CITY           SKY/WX    TMP DP  RH WIND       PRES   REMARKS
DOWNTOWN L.A.  MOSUNNY   64  42  44 W9        30.01F
6HR MIN TEMP:  61; 6HR MAX TEMP:  66;

L.A. AIRPORT   MOSUNNY   60  49  66 W25       30.02F
6HR MIN TEMP:  58; 6HR MAX TEMP:  61;

SAN DIEGO      PTSUNNY   61  42  49 W15       30.10R
6HR MIN TEMP:  61; 6HR MAX TEMP:  64;

BURBANK        PTSUNNY   61  41  47 S8        30.00F
6HR MIN TEMP:  56; 6HR MAX TEMP:  62;

ONTARIO        MOSUNNY   59  41  51 SW16      30.01F
6HR MIN TEMP:  56; 6HR MAX TEMP:  62;

RIVERSIDE      MOSUNNY   59  39  47 W18G24    30.01S
6HR MIN TEMP:  57; 6HR MAX TEMP:  63;

PALM SPRINGS   SUNNY     72  39  30 E8G24     29.84F
6HR MIN TEMP:  67; 6HR MAX TEMP:  74;

EL CENTRO NAS  PTSUNNY   73  35  25 W31G44    29.87S
6HR MIN TEMP:  72; 6HR MAX TEMP:  81;

BLYTHE         MOSUNNY   76  33  21 SW16      29.80F
6HR MIN TEMP:  64; 6HR MAX TEMP:  79;

NEEDLES        SUNNY     73  33  23 W14       29.81F
6HR MIN TEMP:  67; 6HR MAX TEMP:  75;

$$

NVZ020-UTZ003-230100-
SOUTHERN NEVADA-UTAH

CITY           SKY/WX    TMP DP  RH WIND       PRES   REMARKS
LAS VEGAS      MOSUNNY   64  20  18 W16G23    29.78F
6HR MIN TEMP:  60; 6HR MAX TEMP:  65;

SALT LAKE CITY CLOUDY    38  33  82 E6        29.80F WCI  33
6HR MIN TEMP:  37; 6HR MAX TEMP:  41; 6HR PCP: TRACE;

$$

NMZ009-TXZ055-230100-
NEW MEXICO-WEST TEXAS

CITY           SKY/WX    TMP DP  RH WIND       PRES   REMARKS
ALBUQUERQUE    CLOUDY    65  31  28 W23       29.88F
6HR MIN TEMP:  57; 6HR MAX TEMP:  66;

EL PASO        MOSUNNY   78  25  14 SW13G18   29.89F
6HR MIN TEMP:  72; 6HR MAX TEMP:  79;

$$


........................KEY........................
SKY/WX - SKY CONDITION/WEATHER
TMP    - TEMPERATURE IN FAHRENHEIT
DP     - DEW POINT IN FAHRENHEIT
RH     - RELATIVE HUMIDITY IN PERCENT
WIND   - DIRECTION AND SPEED IN MILES PER HOUR (MPH)
VRB    - VARIABLE WIND DIRECTION
PRES   - MEAN SEA LEVEL PRESSURE IN INCHES OF MERCURY
         F - FALLING PRESSURE   R - RISING PRESSURE
         S - STEADY PRESSURE
VSB    - VISIBILITY IN MILES
HX     - HEAT INDEX IN FAHRENHEIT
WCI    - WIND CHILL INDEX IN FAHRENHEIT
TC     - TEMPERATURE IN CELSIUS WHICH IS ALSO KNOWN AS
         TEMPERATURE IN CENTIGRADE
AFB    - AIR FORCE BASE
         LUKE AFB IS LUKE AIR FORCE BASE
         DAVIS-MONTHAN IS DAVIS-MONTHAN AIR FORCE BASE
NAS    - NAVAL AIR STATION
         EL CENTRO NAS IS EL CENTRO NAVAL AIR STATION
N/A    - NOT AVAILABLE




USA.gov is the U.S. government's official web portal to all federal, state and local government web resources and services.